Location: Peterborough
(44.3091°N, 78.3197°W)
Time: 06:22:23
(UTC-04:00)

Vanguard 3 - Pass Details

Date: 25 February 2024
Orbit: 510 x 3234 km, 33.3° (Epoch: 24 April)

Event Time Altitude Azimuth Distance (km) Brightness Sun altitude
Rises 22:33:11 0° 254° (WSW) 7,110 12.2 -47.0°
Reaches altitude 10° 22:38:00 10° 251° (WSW) 6,162 11.7 -47.5°
Enters shadow 22:50:46 44° 227° (SW) 3,863 10.3 -49.0°
